Date,TemperatureHighF,TemperatureAvgF,TemperatureLowF,DewpointHighF,DewpointAvgF,DewpointLowF,HumidityHigh,HumidityAvg,HumidityLow,PressureMaxIn,PressureMinIn,WindSpeedMaxMPH,WindSpeedAvgMPH,GustSpeedMaxMPH,PrecipitationSumIn
2014-1-1,56.8,36.1,24.9,34.0,27.2,17.0,93,73,36,30.42,29.90,18,6,30,0.00
2014-1-2,44.1,29.1,17.9,24.0,19.4,13.0,83,68,45,30.58,30.41,10,3,16,0.00
2014-1-3,58.6,38.4,21.6,29.0,23.8,18.0,87,60,30,30.43,29.82,21,7,29,0.00
2014-1-4,53.3,40.6,29.7,32.0,27.0,20.0,73,60,44,30.00,29.72,21,8,27,0.00
2014-1-5,29.2,23.6,15.2,20.0,10.9,4.0,82,60,36,30.70,30.01,22,9,25,0.00
2014-1-6,30.7,19.0,11.7,9.0,5.5,-2.0,78,58,35,30.82,30.56,9,3,14,0.00
2014-1-7,49.0,30.9,14.2,21.0,15.4,9.0,81,56,30,30.55,30.15,14,5,24,0.00
2014-1-8,49.8,37.5,27.7,37.0,27.9,19.0,96,70,47,30.25,30.04,14,6,19,0.00
2014-1-9,39.3,36.3,34.1,36.0,34.4,33.0,96,93,82,30.23,29.98,17,5,18,0.00
2014-1-10,58.5,45.2,36.7,46.0,32.2,20.0,98,67,24,29.96,29.71,15,4,19,0.00
2014-1-11,64.9,46.5,32.0,24.0,19.9,17.0,58,38,18,30.14,29.89,10,3,18,0.00
2014-1-12,78.2,55.0,33.7,29.0,24.9,20.0,65,37,13,29.94,29.57,21,8,35,0.00
2014-1-13,59.4,47.1,35.6,27.0,16.0,6.0,50,31,12,30.09,29.85,16,5,22,0.00
2014-1-14,55.6,42.4,26.6,33.0,18.4,6.0,67,40,15,30.43,29.98,18,5,28,0.00
2014-1-15,59.1,42.7,28.1,24.0,21.1,19.0,69,45,24,30.43,30.02,20,5,21,0.00
2014-1-16,60.6,47.6,31.3,27.0,18.2,9.0,67,35,13,30.28,30.00,21,5,28,0.00
2014-1-17,53.7,42.6,28.0,18.0,14.3,5.0,55,33,17,30.39,30.12,12,3,20,0.00
2014-1-18,66.5,45.9,25.2,27.0,19.6,16.0,74,40,15,30.26,30.08,19,4,28,0.00
2014-1-19,72.5,48.8,26.9,25.0,19.4,17.0,70,37,13,30.28,29.92,30,5,30,0.00
2014-1-20,68.4,50.0,31.1,22.0,20.0,16.0,65,34,16,30.37,29.84,25,6,32,0.00
2014-1-21,49.7,37.1,27.6,21.0,17.8,14.0,63,47,32,30.51,30.13,11,4,16,0.00
2014-1-22,49.6,37.9,23.6,25.0,21.0,16.0,77,52,36,30.33,30.11,28,10,30,0.00
2014-1-23,37.1,22.2,12.2,20.0,-1.1,-9.0,57,37,24,30.88,30.31,28,11,37,0.00
2014-1-24,52.1,27.7,8.6,16.0,7.2,-6.0,72,45,21,30.87,30.21,16,4,21,0.00
2014-1-25,68.8,49.0,27.4,31.0,23.3,12.0,57,38,24,30.21,29.95,11,2,16,0.00
2014-1-26,66.0,47.5,31.2,31.0,27.6,24.0,77,50,22,30.00,29.69,22,4,43,0.00
2014-1-27,39.8,24.8,18.0,26.0,-4.1,-11.0,59,29,21,30.51,30.02,33,13,53,0.00
2014-1-28,34.5,22.7,14.9,11.0,7.1,-1.0,76,53,35,30.64,30.46,13,4,21,0.00
2014-1-29,49.4,29.6,10.8,14.0,8.3,6.0,81,47,19,30.46,30.02,20,4,25,0.00
2014-1-30,59.4,43.3,29.1,24.0,17.9,12.0,51,38,22,30.00,29.73,15,6,19,0.00
2014-1-31,41.3,35.5,28.8,32.0,27.2,24.0,86,72,50,29.92,29.70,15,6,20,0.00